Location: Clyde
(45.1830°S, 169.3170°E)
Time: 06:11:29
(UTC+12:00)

CZ-4B R/B - Pass Details

Date: 14 May 2021
Orbit: 385 x 454 km, 97.6° (Epoch: 19 June)

Event Time Altitude Azimuth Distance (km) Brightness Sun altitude
Rises 18:27:21 0° 7° (N) 2,274 5.1 -11.1°
Reaches altitude 10° 18:29:18 10° 3° (N) 1,430 4.1 -11.5°
Maximum altitude 18:32:19 61° 282° (WNW) 457 1.7 -12.0°
Drops below altitude 10° 18:35:25 10° 199° (SSW) 1,470 4.1 -12.5°
Sets 18:37:27 0° 196° (SSW) 2,347 5.1 -12.9°
